User: anonymous
Location: Unspecified
(0.0000°N, 0.0000°E)
Time: 04:32:40
(UTC+00:00)
Language:

Vanguard 3 - Orbit

View from above orbital plane
View from above orbital plane
View from above satellite
View from above satellite

Ground track
Ground track

The orbit data is extracted from the following two-line orbital elements,

1 00020U 59007A   14110.75724166  .00003411  00000-0  13728-2 0  4704
2 00020 033.3536 270.0717 1676754 222.5891 123.1967 11.53859315970417
Epoch (UTC): 20 April 2014 18:10:25
Eccentricity: 0.1676754
inclination: 33.3536°
perigee height: 507 km
apogee height: 3281 km
right ascension of ascending node: 270.0717°
argument of perigee: 222.5891°
revolutions per day: 11.53859315
mean anomaly at epoch: 123.1967°
orbit number at epoch: 97041

The dashed part of the orbit path shows where the satellite is in the earth's shadow,  

DLR